Find Starlink 32251

NORAD ID: 60940 Int'l Des: 2024-155 Owner: SPXS Country: US Constellation: starlink operational
LEOCIRCULAR

实时位置

正在加载3D地球...

关于 Starlink 32251

正在加载描述...

即将过境

Passes for default location (London). Set your location on the main map for personalized predictions.

高度历史

Loading altitude history...

两行轨道根数

1 60940U 24155S 26127.62964432 .00001283 00000-0 55441-4 0 9997
2 60940 53.1583 215.9820 0001364 121.5916 238.5218 15.30199876 95363
Epoch: May 7, 2026 • Age: 16 hours

当前状态

高度 476.6 km
速度 7.63 km/s
星下点 27.90°N, 94.1°W
发射日期 Aug 31, 2024
运行时间 1.6 years
类型 internet

技术详情

分类 Payload
质量 730.00 kg
干质量 700.00 kg
总质量 730.00 kg
长度 0.30 m
直径 4.10 m
跨度 29.00 m
形状 Box + pan
制造商 SPXS
平台类型 Starlink V2M
阶段状态 In Orbit
所有者/国家 SPXS/US

Most Searched